Cape Cod CGAS, MA

12:57 PM EDT on June 23, 2017 (GMT -0400)
Cape Cod Coast Guard Air Station

Weather History for KFMH - June, 2013

Change the Weather History Date:

Friday, June 21, 2013

  Actual Average Record
Temperature  
Mean Temperature 65 °F -  
Max Temperature 75 °F 73 °F 91 °F (2012)
Min Temperature 55 °F 57 °F 48 °F (2014)
Growing Degree Days 15 (Base 50)    
Moisture  
Dew Point 52 °F    
Average Humidity 64    
Maximum Humidity 88    
Minimum Humidity 43    
Precipitation  
Precipitation 0.00 in - - ()
Sea Level Pressure  
Sea Level Pressure 30.28 in    
Wind  
Wind Speed 11 mph (SW)    
Max Wind Speed 22 mph    
Max Gust Speed 28 mph    
Visibility 10 miles    
Events      
Averages and records for this station are not official NWS values.
T = Trace of Precipitation, MM = Missing Value Source: NWS Daily Summary

Daily Weather History Graph

Daily Weather History Graph

Search for Another Location

Airport or City:

Trip Planner

Search our weather history database for the weather conditions in past years. The results will help you decide how hot, cold, wet, or windy it might be!

Date:

Astronomy

Jun. 21, 2013 Rise Set
Actual Time 5:07 AM EDT 8:20 PM EDT
Civil Twilight 4:33 AM EDT 8:54 PM EDT
Nautical Twilight 3:49 AM EDT 9:38 PM EDT
Astronomical Twilight 2:56 AM EDT 10:31 PM EDT
Moon 6:26 PM EDT (6/21) 3:21 AM EDT (6/21)
Length of Visible Light 16h 20m
Length of Day
15h 12m
Waxing Gibbous, 95% of the Moon is Illuminated
Jun 21
Waxing Gibbous
Jun 23
Full
Jun 30
Last Quarter
Jul 8
New
Jul 15
First Quarter

Hourly Weather History & Observations

Time (EDT) Temp. Dew Point Humidity Pressure Visibility Wind Dir Wind Speed Gust Speed Precip Events Conditions
12:15 AM 57.2 °F 51.8 °F 82% 30.29 in 10.0 mi WSW 5.8 mph - N/A   Partly Cloudy
12:35 AM 55.4 °F 50.0 °F 82% 30.30 in 10.0 mi West 4.6 mph - N/A   Clear
12:55 AM 55.4 °F 50.0 °F 82% 30.30 in 10.0 mi WSW 5.8 mph - N/A   Clear
1:15 AM 55.4 °F 50.0 °F 82% 30.30 in 10.0 mi WSW 6.9 mph - N/A   Clear
1:35 AM 55.4 °F 50.0 °F 82% 30.30 in 10.0 mi WSW 6.9 mph - N/A   Partly Cloudy
1:55 AM 55.4 °F 50.0 °F 82% 30.29 in 10.0 mi SW 6.9 mph - N/A   Clear
2:15 AM 55.4 °F 50.0 °F 82% 30.29 in 10.0 mi SW 6.9 mph - N/A   Clear
2:35 AM 55.4 °F 50.0 °F 82% 30.28 in 10.0 mi SW 6.9 mph - N/A   Partly Cloudy
2:55 AM 55.4 °F 50.0 °F 82% 30.29 in 10.0 mi SW 5.8 mph - N/A   Partly Cloudy
3:15 AM 55.4 °F 50.0 °F 82% 30.29 in 10.0 mi SW 5.8 mph - N/A   Clear
3:35 AM 55.4 °F 51.8 °F 88% 30.29 in 10.0 mi SW 8.1 mph - N/A   Clear
3:55 AM 57.2 °F 51.8 °F 82% 30.28 in 10.0 mi SW 5.8 mph - N/A   Clear
4:15 AM 55.4 °F 51.8 °F 88% 30.28 in 10.0 mi SSW 5.8 mph - N/A   Clear
4:35 AM 55.4 °F 51.8 °F 88% 30.28 in 10.0 mi SW 4.6 mph - N/A   Clear
4:55 AM 55.4 °F 51.8 °F 88% 30.29 in 10.0 mi WSW 5.8 mph - N/A   Clear
5:15 AM 57.2 °F 53.6 °F 88% 30.29 in 10.0 mi WSW 8.1 mph - N/A   Clear
5:35 AM 59.0 °F 53.6 °F 82% 30.29 in 10.0 mi WSW 6.9 mph - N/A   Clear
5:55 AM 59.0 °F 53.6 °F 82% 30.29 in 10.0 mi SW 9.2 mph - N/A   Clear
6:15 AM 60.8 °F 55.4 °F 82% 30.29 in 10.0 mi WSW 10.4 mph - N/A   Clear
6:35 AM 62.6 °F 55.4 °F 77% 30.30 in 10.0 mi SW 9.2 mph - N/A   Clear
6:55 AM 62.6 °F 55.4 °F 77% 30.30 in 10.0 mi SW 11.5 mph - N/A   Clear
7:15 AM 64.4 °F 53.6 °F 68% 30.30 in 10.0 mi WSW 11.5 mph - N/A   Clear
7:35 AM 64.4 °F 53.6 °F 68% 30.30 in 10.0 mi SW 11.5 mph 17.3 mph N/A   Clear
8:15 AM 66.2 °F 50.0 °F 56% 30.29 in 10.0 mi SW 13.8 mph 20.7 mph N/A   Unknown
8:35 AM 68.0 °F 50.0 °F 52% 30.29 in 10.0 mi SW 13.8 mph 18.4 mph N/A   Clear
8:55 AM 68.0 °F 48.2 °F 49% 30.29 in 10.0 mi SW 16.1 mph - N/A   Clear
9:15 AM 69.8 °F 50.0 °F 49% 30.29 in 10.0 mi SW 16.1 mph 19.6 mph N/A   Clear
9:35 AM 69.8 °F 50.0 °F 49% 30.28 in 10.0 mi SW 17.3 mph 24.2 mph N/A   Clear
9:55 AM 69.8 °F 50.0 °F 49% 30.28 in 10.0 mi SW 19.6 mph 24.2 mph N/A   Clear
10:15 AM 71.6 °F 50.0 °F 46% 30.28 in 10.0 mi WSW 18.4 mph 23.0 mph N/A   Clear
10:35 AM 71.6 °F 50.0 °F 46% 30.29 in 10.0 mi WSW 16.1 mph 27.6 mph N/A   Clear
10:55 AM 71.6 °F 50.0 °F 46% 30.28 in 10.0 mi WSW 19.6 mph 27.6 mph N/A   Clear
11:15 AM 71.6 °F 51.8 °F 50% 30.29 in 10.0 mi WSW 20.7 mph 25.3 mph N/A   Clear
11:35 AM 71.6 °F 50.0 °F 46% 30.28 in 10.0 mi SW 21.9 mph - N/A   Clear
11:55 AM 73.4 °F 53.6 °F 50% 30.29 in 10.0 mi SW 18.4 mph 25.3 mph N/A   Clear
12:15 PM 73.4 °F 53.6 °F 50% 30.29 in 10.0 mi SW 17.3 mph 23.0 mph N/A   Clear
12:35 PM 73.4 °F 55.4 °F 53% 30.29 in 10.0 mi SW 17.3 mph 21.9 mph N/A   Clear
12:55 PM 73.4 °F 55.4 °F 53% 30.28 in 10.0 mi SW 18.4 mph 24.2 mph N/A   Clear
1:15 PM 73.4 °F 55.4 °F 53% 30.28 in 10.0 mi SW 18.4 mph 24.2 mph N/A   Clear
1:35 PM 73.4 °F 55.4 °F 53% 30.28 in 10.0 mi WSW 15.0 mph 20.7 mph N/A   Clear
1:55 PM 73.4 °F 55.4 °F 53% 30.27 in 10.0 mi WSW 17.3 mph 25.3 mph N/A   Clear
2:15 PM 73.4 °F 55.4 °F 53% 30.27 in 10.0 mi WSW 19.6 mph 24.2 mph N/A   Clear
2:35 PM 75.2 °F 55.4 °F 50% 30.26 in 10.0 mi SW 17.3 mph 23.0 mph N/A   Clear
2:55 PM 73.4 °F 55.4 °F 53% 30.26 in 10.0 mi SW 16.1 mph - N/A   Clear
3:15 PM 73.4 °F 55.4 °F 53% 30.26 in 10.0 mi WSW 15.0 mph 20.7 mph N/A   Clear
3:35 PM 73.4 °F 53.6 °F 50% 30.26 in 10.0 mi WSW 18.4 mph 23.0 mph N/A   Clear
3:55 PM 73.4 °F 51.8 °F 47% 30.26 in 10.0 mi WSW 19.6 mph 25.3 mph N/A   Clear
4:15 PM 73.4 °F 50.0 °F 44% 30.25 in 10.0 mi WSW 18.4 mph 24.2 mph N/A   Clear
4:35 PM 73.4 °F 50.0 °F 44% 30.25 in 10.0 mi WSW 19.6 mph 27.6 mph N/A   Clear
4:55 PM 71.6 °F 48.2 °F 43% 30.25 in 10.0 mi WSW 18.4 mph 24.2 mph N/A   Clear
5:15 PM 71.6 °F 50.0 °F 46% 30.25 in 10.0 mi WSW 18.4 mph 21.9 mph N/A   Clear
5:35 PM 71.6 °F 50.0 °F 46% 30.24 in 10.0 mi WSW 19.6 mph 25.3 mph N/A   Clear
5:55 PM 71.6 °F 50.0 °F 46% 30.25 in 10.0 mi WSW 16.1 mph 24.2 mph N/A   Clear
6:15 PM 69.8 °F 50.0 °F 49% 30.25 in 10.0 mi SW 18.4 mph 23.0 mph N/A   Clear
6:35 PM 68.0 °F 48.2 °F 49% 30.26 in 10.0 mi WSW 16.1 mph 21.9 mph N/A   Clear
6:55 PM 68.0 °F 48.2 °F 49% 30.26 in 10.0 mi WSW 15.0 mph - N/A   Clear
7:15 PM 66.2 °F 50.0 °F 56% 30.27 in 10.0 mi SW 12.7 mph 18.4 mph N/A   Clear
7:35 PM 66.2 °F 48.2 °F 52% 30.27 in 10.0 mi WSW 10.4 mph 18.4 mph N/A   Clear
7:55 PM 66.2 °F 50.0 °F 56% 30.27 in 10.0 mi SW 12.7 mph - N/A   Partly Cloudy
8:15 PM 64.4 °F 50.0 °F 59% 30.27 in 10.0 mi SW 12.7 mph 16.1 mph N/A   Clear
8:35 PM 64.4 °F 50.0 °F 59% 30.27 in 10.0 mi WSW 11.5 mph - N/A   Scattered Clouds
8:55 PM 64.4 °F 50.0 °F 59% 30.27 in 10.0 mi WSW 12.7 mph 17.3 mph N/A   Partly Cloudy
9:15 PM 64.4 °F 51.8 °F 64% 30.28 in 10.0 mi WSW 12.7 mph - N/A   Scattered Clouds
9:35 PM 64.4 °F 51.8 °F 64% 30.28 in 10.0 mi WSW 11.5 mph - N/A   Scattered Clouds
9:55 PM 64.4 °F 53.6 °F 68% 30.27 in 10.0 mi WSW 9.2 mph - N/A   Clear
10:15 PM 64.4 °F 53.6 °F 68% 30.27 in 10.0 mi WSW 11.5 mph - N/A   Scattered Clouds
10:35 PM 64.4 °F 53.6 °F 68% 30.27 in 10.0 mi WSW 10.4 mph - N/A   Mostly Cloudy
10:55 PM 62.6 °F 53.6 °F 72% 30.27 in 10.0 mi WSW 10.4 mph - N/A   Mostly Cloudy
11:15 PM 62.6 °F 55.4 °F 77% 30.27 in 10.0 mi WSW 9.2 mph - N/A   Mostly Cloudy
11:35 PM 62.6 °F 53.6 °F 72% 30.27 in 10.0 mi WSW 10.4 mph - N/A   Mostly Cloudy
11:55 PM 62.6 °F 53.6 °F 72% 30.27 in 10.0 mi SW 8.1 mph - N/A   Scattered Clouds